[[{"header":{"parameterUnit":"m.s-1","parameterCategory":1,"la1":30.2991,"la2":30.254,"lo1":-89.0895,"lo2":-89.0444,"dy":0.0017,"dx":0.0017,"nx":28,"ny":28,"refTime":"2024-03-15T09:00:00:Z","depth":0,"parameterNumber":2,"parameterNumberName":"U-component_of_WINDS"},"data":[0,0,0,0,0,0,0,0,0,0,0,0,0,0,0,0,0,0,0,0,0,0,0,0,0,0,0,0,0,0,0,0,0,0,0,0,0,0,0,0,0,0,0,0,0,0,0,0,0,0,0,0,0,0,0,0,0,0,-0.4547,-0.4546,0,-0.4506,-0.4505,-0.4505,-0.4486,-0.4486,-0.4486,-0.4486,-0.4443,-0.4441,-0.444,0,0,0,0,0,0,0,0,0,0,0,0,0,-0.4607,-0.4606,-0.4547,-0.4546,-0.4546,-0.4506,-0.4505,-0.4505,-0.4486,-0.4486,-0.4486,-0.4486,-0.4443,-0.4442,-0.444,0,0,0,0,0,0,0,0,0,0,0,0,0,-0.4575,-0.4606,-0.4547,-0.4531,-0.4529,-0.4506,-0.4505,-0.4504,-0.4486,-0.4486,-0.4486,-0.4486,-0.4443,-0.4442,-0.444,-0.4428,0,0,-0.4435,-0.4434,0,0,0,0,0,0,0,0,-0.4577,-0.4573,-0.4534,-0.4532,-0.453,-0.4501,-0.4511,-0.4479,-0.4485,-0.4502,-0.4486,-0.4486,-0.4462,-0.4459,-0.4451,-0.4426,-0.4424,-0.4434,-0.4433,-0.4433,-0.4432,0,0,0,0,0,0,0,-0.4579,-0.4575,-0.453,-0.4533,-0.4531,-0.4526,-0.4522,-0.4505,-0.4482,-0.4501,-0.4499,-0.4495,-0.4461,-0.4452,-0.445,-0.4424,-0.4434,-0.4433,-0.4432,-0.4431,-0.4388,-0.4388,0,0,0,0,0,0,-0.4584,-0.4577,-0.4532,-0.4529,-0.4554,-0.4525,-0.452,-0.451,-0.4482,-0.4478,-0.4495,-0.4494,-0.4455,-0.4452,-0.4448,-0.4433,-0.4433,-0.4431,-0.443,-0.4388,-0.4388,-0.4388,0,0,0,0,0,0,-0.4586,-0.458,-0.4533,-0.4552,-0.4546,-0.4524,-0.4513,-0.4509,-0.4501,-0.4478,-0.4474,-0.449,-0.4455,-0.445,-0.4433,-0.4431,-0.443,-0.4429,-0.4388,-0.4388,-0.4388,-0.4402,0,0,0,0,0,0,-0.4587,-0.4581,-0.4576,-0.4553,-0.4545,-0.452,-0.4513,-0.4508,-0.4498,-0.4497,-0.4473,-0.4469,-0.4455,-0.4436,-0.4432,-0.4428,-0.4427,-0.4388,-0.4388,-0.4388,-0.4401,-0.4402,-0.4402,0,0,0,0,0,-0.459,-0.4582,-0.4576,-0.4571,-0.4539,-0.452,-0.4515,-0.45,-0.4498,-0.4493,-0.4478,-0.4469,-0.4432,-0.4435,-0.4429,-0.4425,-0.4388,-0.4388,-0.4388,-0.4401,-0.4402,-0.4402,0,0,0,0,0,0,-0.4605,-0.4578,-0.4572,-0.4556,-0.454,-0.4516,-0.451,-0.4501,-0.4486,-0.4485,-0.4466,-0.4461,-0.4446,-0.4434,-0.4437,-0.4413,-0.4409,-0.4408,-0.4421,-0.4422,-0.4422,-0.4425,-0.4426,0,0,0,0,0,-0.4607,-0.4594,-0.4571,-0.4559,-0.4551,-0.4532,-0.4523,-0.4513,-0.4495,-0.4488,-0.4472,-0.4456,-0.444,-0.443,-0.4415,-0.44,-0.4394,-0.4394,-0.4395,-0.4396,-0.4395,-0.4386,-0.4386,-0.4387,-0.4387,-0.4387,0,0,-0.461,-0.4594,-0.4586,-0.4561,-0.4548,-0.4534,-0.4526,-0.4512,-0.4502,-0.4486,-0.4469,-0.4457,-0.4437,-0.4421,-0.4413,-0.4411,-0.4393,-0.4395,-0.4396,-0.4395,-0.4386,-0.4386,-0.4386,-0.4387,-0.4387,-0.4387,0,0,-0.4608,-0.4595,-0.4584,-0.4571,-0.4551,-0.4538,-0.4535,-0.4513,-0.4504,-0.4487,-0.4475,-0.4462,-0.4436,-0.4423,-0.4412,-0.4407,-0.4398,-0.4402,-0.4405,-0.4397,-0.4397,-0.4397,-0.4395,-0.4394,-0.4401,-0.4401,-0.4401,0,-0.4615,-0.4594,-0.4579,-0.4565,-0.4555,-0.4541,-0.4529,-0.4517,-0.4493,-0.4486,-0.4484,-0.4451,-0.4436,-0.4417,-0.4416,-0.4408,-0.4404,-0.4405,-0.4398,-0.4398,-0.4397,-0.4395,-0.4394,-0.4402,-0.4402,-0.4402,-0.4402,0,-0.4603,-0.4589,-0.4582,-0.4559,-0.4548,-0.4536,-0.4518,-0.4509,-0.45,-0.4488,-0.447,-0.4453,-0.4434,-0.4428,-0.4419,-0.4408,-0.4407,-0.4402,-0.4398,-0.4398,-0.4396,-0.4395,-0.4403,-0.4403,-0.4403,-0.4402,0,0,-0.4609,-0.4579,-0.4577,-0.4567,-0.4544,-0.4533,-0.452,-0.4501,-0.4494,-0.4478,-0.4466,-0.4445,-0.444,-0.4428,-0.4417,-0.441,-0.4407,-0.4406,-0.4405,-0.4407,-0.4394,-0.4397,-0.4397,-0.4401,-0.4401,-0.4401,-0.4395,0,-0.4604,-0.4581,-0.4567,-0.4549,-0.4536,-0.4523,-0.4511,-0.4496,-0.4484,-0.4471,-0.4458,-0.4443,-0.4438,-0.4431,-0.4424,-0.4409,-0.4404,-0.4409,-0.439,-0.439,-0.4395,-0.4395,-0.4399,-0.4395,-0.4394,-0.4394,-0.4394,0,-0.4595,-0.458,-0.4561,-0.4541,-0.4534,-0.4525,-0.4507,-0.4495,-0.4477,-0.4469,-0.4457,-0.4446,-0.4432,-0.443,-0.441,-0.4414,-0.4405,-0.4397,-0.4397,-0.4394,-0.4392,-0.4392,-0.4393,-0.4392,-0.4392,-0.4392,-0.4392,0,-0.4602,-0.4577,-0.4562,-0.4554,-0.4529,-0.4523,-0.4512,-0.4495,-0.4485,-0.447,-0.4463,-0.4446,-0.4437,-0.4424,-0.4409,-0.4408,-0.439,-0.4387,-0.4383,-0.4383,-0.4379,-0.438,-0.4378,-0.4374,-0.4374,-0.4374,-0.4374,0,-0.4598,-0.4587,-0.4565,-0.4556,-0.4543,-0.4527,-0.4515,-0.4503,-0.4488,-0.4476,-0.4464,-0.4453,-0.4434,-0.4421,-0.441,-0.4395,-0.4391,-0.4384,-0.4381,-0.4385,-0.4386,-0.4378,-0.4378,-0.4374,-0.4374,-0.4374,-0.4374,0,-0.4603,-0.4588,-0.4571,-0.4549,-0.4544,-0.4535,-0.4516,-0.4507,-0.4495,-0.4481,-0.4476,-0.4457,-0.4441,-0.4426,-0.4404,-0.4396,-0.4381,-0.4378,-0.4387,-0.4386,-0.4383,-0.4383,-0.4376,-0.4374,-0.4373,-0.4373,-0.4373,0,-0.4601,-0.4592,-0.457,-0.4561,-0.4551,-0.4538,-0.4527,-0.4512,-0.4502,-0.4482,-0.4475,-0.4458,-0.4444,-0.4419,-0.4403,-0.4387,-0.4382,-0.4381,-0.438,-0.4384,-0.4382,-0.4382,-0.4381,-0.4381,-0.4381,-0.4381,-0.4382,0,-0.4599,-0.4592,-0.4578,-0.4562,-0.4551,-0.4537,-0.4523,-0.4517,-0.4498,-0.4488,-0.4472,-0.4461,-0.4439,-0.4423,-0.4404,-0.4393,-0.4384,-0.4382,-0.438,-0.4384,-0.439,-0.4387,-0.4389,-0.4382,-0.4382,-0.4382,-0.4382,-0.4382,-0.46,-0.4592,-0.4575,-0.456,-0.4548,-0.4535,-0.4526,-0.4513,-0.4499,-0.448,-0.4472,-0.4456,-0.4439,-0.4414,-0.4403,-0.439,-0.4388,-0.4385,-0.4384,-0.4384,-0.4385,-0.4393,-0.4387,-0.4387,-0.4387,-0.4387,-0.4387,0,-0.4598,-0.4586,-0.4573,-0.4554,-0.4542,-0.4536,-0.452,-0.451,-0.4496,-0.4482,-0.4468,-0.445,-0.4434,-0.4417,-0.44,-0.4393,-0.4389,-0.4389,-0.4389,-0.4387,-0.4388,-0.4391,-0.4393,-0.4393,-0.4393,-0.4393,-0.4393,-0.4393,-0.4595,-0.458,-0.4572,-0.4551,-0.454,-0.4524,-0.4516,-0.4504,-0.4492,-0.4472,-0.4459,-0.4449,-0.4433,-0.4415,-0.4401,-0.4396,-0.439,-0.4392,-0.4386,-0.4387,-0.4387,-0.4386,-0.4389,-0.4391,-0.4391,-0.4386,-0.4386,-0.4386]},{"header":{"parameterUnit":"m.s-1","parameterCategory":1,"la1":30.2991,"la2":30.254,"lo1":-89.0895,"lo2":-89.0444,"dy":0.0017,"dx":0.0017,"nx":28,"ny":28,"refTime":"2024-03-15T09:00:00:Z","depth":0,"parameterNumber":3,"parameterNumberName":"V-component_of_WINDS"},"data":[0,0,0,0,0,0,0,0,0,0,0,0,0,0,0,0,0,0,0,0,0,0,0,0,0,0,0,0,0,0,0,0,0,0,0,0,0,0,0,0,0,0,0,0,0,0,0,0,0,0,0,0,0,0,0,0,0,0,0.7459,0.7459,0,0.7424,0.7424,0.7423,0.7397,0.7397,0.7397,0.7396,0.7358,0.7358,0.7357,0,0,0,0,0,0,0,0,0,0,0,0,0,0.7502,0.7502,0.7459,0.7459,0.7458,0.7424,0.7424,0.7423,0.7397,0.7397,0.7397,0.7396,0.7359,0.7358,0.7357,0,0,0,0,0,0,0,0,0,0,0,0,0,0.7477,0.7501,0.7459,0.7441,0.7439,0.7424,0.7424,0.7423,0.7397,0.7397,0.7396,0.7396,0.7359,0.7358,0.7357,0.7356,0,0,0.7353,0.7353,0,0,0,0,0,0,0,0,0.7478,0.7475,0.7444,0.7442,0.744,0.7415,0.7425,0.7401,0.7397,0.7413,0.7396,0.7396,0.7377,0.7375,0.7369,0.7354,0.7353,0.7353,0.7352,0.7352,0.7351,0,0,0,0,0,0,0,0.748,0.7477,0.7445,0.7444,0.7441,0.7434,0.743,0.742,0.7397,0.7412,0.741,0.7406,0.7376,0.737,0.7368,0.7352,0.7353,0.7352,0.7351,0.7351,0.7337,0.7337,0,0,0,0,0,0,0.7485,0.7478,0.7446,0.7444,0.7459,0.7434,0.7429,0.7423,0.7398,0.7393,0.7406,0.7405,0.7372,0.7369,0.7366,0.7365,0.7352,0.7351,0.735,0.7337,0.7337,0.7338,0,0,0,0,0,0,0.7486,0.7482,0.7448,0.7461,0.7456,0.7434,0.7427,0.7423,0.7416,0.7394,0.7389,0.7404,0.7372,0.7368,0.7359,0.7363,0.735,0.7349,0.7336,0.7337,0.7337,0.7362,0,0,0,0,0,0,0.7487,0.7483,0.7483,0.7461,0.7455,0.7442,0.7427,0.7422,0.7415,0.7413,0.739,0.7386,0.7371,0.7361,0.7358,0.7361,0.7348,0.7336,0.7337,0.7337,0.7361,0.7363,0.7366,0,0,0,0,0,0.7489,0.749,0.7483,0.7479,0.7455,0.7442,0.7439,0.7422,0.7415,0.7415,0.74,0.7387,0.7363,0.7361,0.7357,0.736,0.7336,0.7336,0.7337,0.736,0.7363,0.7365,0,0,0,0,0,0,0.7512,0.7487,0.7478,0.7473,0.746,0.7438,0.7437,0.7425,0.7414,0.7412,0.7391,0.7386,0.738,0.7369,0.7366,0.7359,0.7348,0.7348,0.7366,0.7369,0.7371,0.7374,0.7347,0,0,0,0,0,0.7517,0.7509,0.7487,0.7484,0.7479,0.7459,0.7453,0.7441,0.7426,0.7421,0.7405,0.7391,0.7381,0.7374,0.7363,0.7359,0.7354,0.7359,0.7362,0.7364,0.7364,0.7362,0.7365,0.734,0.734,0.734,0,0,0.7526,0.7511,0.7507,0.7489,0.7477,0.747,0.7454,0.7447,0.7441,0.7419,0.7411,0.7399,0.7382,0.7376,0.7373,0.7367,0.737,0.7365,0.7366,0.7366,0.7363,0.7366,0.7368,0.7341,0.7341,0.7341,0,0,0.7539,0.7527,0.7524,0.7513,0.7496,0.7483,0.7483,0.7462,0.7454,0.7446,0.7429,0.7422,0.7404,0.7393,0.7385,0.7395,0.7383,0.7392,0.7405,0.7403,0.7405,0.7407,0.7411,0.7413,0.7392,0.7392,0.7392,0,0.7552,0.7541,0.7523,0.7517,0.751,0.7491,0.7488,0.7478,0.7458,0.7453,0.7447,0.7425,0.7412,0.7404,0.7407,0.74,0.7399,0.7395,0.7406,0.7408,0.7409,0.7413,0.7415,0.7394,0.7394,0.7393,0.7393,0,0.7558,0.7551,0.755,0.7533,0.7525,0.7521,0.7503,0.7497,0.7486,0.7474,0.7466,0.745,0.7436,0.7433,0.7421,0.7423,0.742,0.741,0.7399,0.7413,0.7417,0.7418,0.7396,0.7395,0.7395,0.7394,0,0,0.7584,0.7559,0.7559,0.7551,0.7532,0.7526,0.7521,0.7508,0.7504,0.7491,0.7486,0.7472,0.7464,0.7454,0.7442,0.744,0.7451,0.7431,0.743,0.7436,0.7454,0.7462,0.7464,0.7443,0.7443,0.7443,0.7455,0,0.7595,0.7585,0.757,0.7565,0.7559,0.7541,0.7536,0.7524,0.7513,0.7505,0.7492,0.7483,0.7472,0.7466,0.7464,0.745,0.7454,0.7449,0.7439,0.7438,0.7444,0.7466,0.7474,0.7486,0.7457,0.7457,0.7457,0,0.7606,0.7596,0.7591,0.7574,0.757,0.7567,0.7554,0.7547,0.7533,0.7525,0.7516,0.7502,0.7496,0.7486,0.7477,0.7474,0.7468,0.7461,0.7461,0.746,0.7449,0.7466,0.749,0.7492,0.7459,0.7459,0.7459,0,0.7627,0.7612,0.7607,0.7601,0.7581,0.7579,0.757,0.7555,0.7549,0.7538,0.7534,0.7522,0.7516,0.7507,0.7491,0.7484,0.7484,0.7472,0.7478,0.7478,0.7479,0.7479,0.7503,0.7474,0.7474,0.7474,0.7474,0,0.7641,0.7639,0.7617,0.7614,0.7611,0.7594,0.7591,0.7581,0.7568,0.7563,0.7546,0.7542,0.7521,0.7514,0.7501,0.7496,0.7493,0.7487,0.7483,0.7489,0.749,0.7485,0.7484,0.7474,0.7474,0.7474,0.7474,0,0.7664,0.7649,0.7643,0.7625,0.762,0.7619,0.7603,0.76,0.7588,0.7581,0.7579,0.756,0.7551,0.7534,0.752,0.7511,0.751,0.7503,0.7515,0.7513,0.752,0.752,0.7543,0.7545,0.7514,0.7514,0.7515,0,0.7675,0.7673,0.7655,0.7651,0.7643,0.7636,0.763,0.7613,0.7607,0.7592,0.759,0.758,0.7571,0.7558,0.7543,0.7532,0.7526,0.7535,0.7524,0.753,0.7528,0.7528,0.7529,0.7537,0.7538,0.7538,0.7538,0,0.7695,0.7688,0.768,0.767,0.7664,0.7655,0.7645,0.7643,0.7623,0.7618,0.7609,0.7602,0.7589,0.7579,0.7567,0.7557,0.7545,0.7542,0.7543,0.7549,0.7556,0.7553,0.7523,0.7541,0.7541,0.7541,0.7541,0.7541,0.7712,0.7711,0.7698,0.7691,0.7682,0.7673,0.767,0.7658,0.7651,0.7639,0.7629,0.7621,0.7608,0.759,0.7582,0.7576,0.7569,0.757,0.7571,0.7572,0.7574,0.7556,0.7573,0.7573,0.7573,0.7573,0.7573,0,0.7733,0.7724,0.7718,0.7705,0.7699,0.7689,0.7678,0.7674,0.7668,0.7657,0.7649,0.7639,0.763,0.7615,0.7605,0.7603,0.7597,0.7601,0.7601,0.76,0.758,0.7581,0.7606,0.7606,0.7606,0.7606,0.7606,0.7606,0.7743,0.774,0.7732,0.7724,0.7715,0.7709,0.7703,0.7696,0.7687,0.7678,0.7671,0.7661,0.7648,0.7637,0.7629,0.7625,0.7622,0.7628,0.7622,0.7604,0.7601,0.7598,0.7599,0.7627,0.7627,0.7642,0.7643,0.7643]}]]